Regional Weather Roundup
Issued by NWS

Home | Current Version | Previous Version | Graphics & Text | Print | Product List | Glossary On
Versions: 1 2 3 4 5 6 7 8 9 10 11 12 13 14 15 16 17 18 19 20 21 22 23 24 25 26 27 28 29 30 31 32 33 34 35 36 37 38 39 40 41 42 43 44 45 46 47 48 49 50
000
ASUS43 KMKX 122000
RWRWI

WISCONSIN REGIONAL WEATHER ROUNDUP
NATIONAL WEATHER SERVICE MILWAUKEE/SULLIVAN WI
300 PM CDT SAT JUL 12 2014

NOTE: "FAIR" INDICATES FEW OR NO CLOUDS BELOW 12,000 FEET WITH NO
SIGNIFICANT WEATHER AND/OR OBSTRUCTIONS TO VISIBILITY.

WIZ001-002-006>008-014>016-023>028-122100-
NORTHWEST WISCONSIN

CITY           SKY/WX    TMP DP  RH WIND       PRES   REMARKS
SUPERIOR ARPT  CLOUDY    73  61  67 S5        29.95F
ASHLAND        CLOUDY    74  62  66 N3        29.96F
HAYWARD        CLOUDY    76  65  68 CALM      29.95F
SIREN          CLOUDY    75  62  64 NW8       29.96F
RICE LAKE      CLOUDY    70  63  79 CALM      29.98F
LADYSMITH      LGT RAIN  74  70  88 CALM      29.99F
EAU CLAIRE     LGT RAIN  73  72  96 SW9       29.96F FOG
MENOMONIE      DRIZZLE   75  72  92 S10       29.96F
NEW RICHMOND   LGT RAIN  67  65  96 SW3       29.98S
OSCEOLA        LGT RAIN  76  73  92 W7        29.99F
$$

WIZ003>005-009-010-017-018-122100-
NORTH CENTRAL WISCONSIN

CITY           SKY/WX    TMP DP  RH WIND       PRES   REMARKS
WOODRUFF       CLOUDY    77  67  72 SW7       29.98S
RHINELANDER    CLOUDY    76  67  73 SW5       29.99S
EAGLE RIVER    CLOUDY    75  62  64 W7        29.97S
LAND O LAKES   CLOUDY    76  62  62 W5        29.98S
PHILLIPS       CLOUDY    75  69  81 SW5       29.98S
TOMAHAWK       CLOUDY    75  68  78 CALM      29.99S
MEDFORD        LGT RAIN  74  70  86 SW8       30.00R
MERRILL        CLOUDY    76  70  82 S5        29.98S
$$

WIZ029-030-035-036-043>047-122100-
CENTRAL WISCONSIN

CITY           SKY/WX    TMP DP  RH WIND       PRES   REMARKS
WAUSAU         LGT RAIN  74  70  87 SW5       29.97R FOG
MOSINEE        LGT RAIN  73  72  94 S3        30.00R
MARSHFIELD     LGT RAIN  74  71  91 S7        29.99S FOG
STEVENS POINT  CLOUDY    74  67  79 SW5       30.00R
WAUPACA        CLOUDY    80  70  71 S3        29.98S HX  83
WAUTOMA        NOT AVBL
WISC RAPIDS    LGT RAIN  76  71  85 SW6       30.00R
CAMP DOUGLAS   NOT AVBL
$$

WIZ011>013-019>022-031-037>040-048>050-122100-
NORTHEAST WISCONSIN

CITY           SKY/WX    TMP DP  RH WIND       PRES   REMARKS
ANTIGO         CLOUDY    74  68  81 SW3       29.99S
STURGEON BAY   CLOUDY    73  64  73 S6        29.96F
GREEN BAY      CLOUDY    80  70  71 S7        29.95F HX  83
MANITOWOC      NOT AVBL
APPLETON       CLOUDY    77  66  69 VRB5      29.97F
CLINTONVILLE   CLOUDY    77  68  73 S6        29.97S
OSHKOSH        CLOUDY    77  69  76 SW6       29.97S
$$

WIZ032>034-041-042-053>061-122100-
SOUTHWEST WISCONSIN

CITY           SKY/WX    TMP DP  RH WIND       PRES   REMARKS
LA CROSSE      HVY RAIN  70  68  93 N13       29.98S VSB 1/4
SPARTA         RAIN      73  71  91 CALM      30.00F
VIROQUA        CLOUDY    74  73  96 S6        30.01F
BOSCOBEL       CLOUDY    79  69  71 CALM      29.98F HX  81
PRAIRIE DU CHI CLOUDY    79  68  69 S3        29.98S HX  81
PLATTEVILLE    PTSUNNY   79  71  78 S7        30.01S HX  81
$$

WIZ056-057-062-063-064-067-068-122100-
SOUTH CENTRAL WISCONSIN

CITY           SKY/WX    TMP DP  RH WIND       PRES   REMARKS
BARABOO/DELLS  LGT RAIN  74  68  80 SW5       30.00S
LONE ROCK      NOT AVBL
WATERTOWN      CLOUDY    75  70  84 SW9       29.98S
MADISON        LGT RAIN  77  69  76 SW5       30.00S
MIDDLETON      CLOUDY    77  69  74 SW7       30.01R
MONROE         CLOUDY    75  70  83 SW10      30.00F
JANESVILLE     CLOUDY    77  70  78 SW9       29.99F
$$

WIZ051-052-058>065-066-070>072-122100-
SOUTHEAST WISCONSIN

CITY           SKY/WX    TMP DP  RH WIND       PRES   REMARKS
MILWAUKEE      CLOUDY    76  69  79 SW14      29.98F
WAUKESHA       CLOUDY    73  68  83 MISG      29.99F
MILWAUKEE/TIMM CLOUDY    75  66  73 SW8       29.98F
RACINE         CLOUDY    76  69  79 W10G18    29.99F
BURLINGTON     CLOUDY    74  69  84 SW13      29.99F
KENOSHA        CLOUDY    77  71  82 W13G22    29.98F
FOND DU LAC    CLOUDY    76  67  73 SW9       29.98S
SHEBOYGAN      CLOUDY    76  67  73 S3        29.95F
WEST BEND      CLOUDY    73  66  78 SW7       29.98F
JUNEAU         CLOUDY    75  54  47 SW12      30.01R
$$

LSZ147-162-122100-
LAKE SUPERIOR

STATION/POSITION TIME  TEMP    WIND        PRES    WAVE
                       AIR SEA DIR/SP/G            HT/PER
                 (UTC) (F)     (DEG/KT/KT) (MB)    (FT/S)
W MID LAKE BUOY  1850   47 39  260/  6/  6 1014.6F   0
PORT WING        1900   62     340/  2/  3 1014.6S
SAXON HARBOR     1900             CALM     1014.9S
$$

LMZ867-665-643>646-122100-
LAKE MICHIGAN

STATION/POSITION TIME  TEMP    WIND        PRES    WAVE
                       AIR SEA DIR/SP/G            HT/PER
                 (UTC) (F)     (DEG/KT/KT) (MB)    (FT/S)
N MID LAKE BUOY  1850   58 56  210/ 10/ 12 1014.8F   1/ 4
NORTHPORT PIER   1900   70     150/  5/  8 1014.9S
KEWAUNEE LAKESHO 1900   59     140/  4/  7 1015.6F
SHEBOYGAN LAKESH 1900   70     190/  9/ 10 1015.2S
PORT WASHINGTON  1900   64     190/  3/ 10 1015.6F
MILWAUKEE LAKESH 1900          240/  8/  9   N/A
S MID LAKE BUOY  1850   64 62  170/ 14/ 16 1015.3F   1/ 3
KENOSHA   LAKESH 1900   76     240/ 12/ 21   N/A
$$

TC  - TEMPERATURE IN CELSIUS
VSB - VISIBILITY IN STATUTE MILES
WCI - WIND CHILL INDEX
HX  - HEAT INDEX




USA.gov is the U.S. government's official web portal to all federal, state and local government web resources and services.